CAPE
266 75 33 15 0 0 0 3 3 1 83 145 92 32 10 4 5 10 12 22 32 7 2 6 7 9 37 11 26 15 7 8 10
159 9 0 0 0 0 17 13 3 0 64 102 75 60 23 16 12 17 5 20 18 16 3 1 1 8 20 21 19 7 2 7 9
28 0 0 0 0 35 140 79 19 0 58 35 66 57 49 22 22 21 21 16 17 18 14 11 5 3 11 20 14 5 8 20 8
0 0 0 0 1 104 77 144 111 15 20 25 56 65 40 27 3 2 6 38 28 29 14 11 11 14 9 12 7 5 10 19 7
0 19 4 0 64 81 35 63 71 27 23 36 49 44 57 7 11 7 12 37 36 36 23 32 11 5 8 7 6 10 6 14 6
0 0 4 0 27 17 20 21 24 29 39 41 38 54 47 32 9 4 3 7 31 42 20 34 31 24 20 15 19 7 8 10 12
3 0 0 0 7 16 6 11 10 28 37 16 24 47 55 28 12 2 3 4 10 9 3 18 26 16 14 14 20 32 22 6 9
5 0 0 8 15 2 5 4 1 7 11 11 34 38 50 24 17 23 20 13 16 13 6 14 16 16 14 3 15 10 18 1 0
1 0 0 0 24 7 3 3 7 16 21 6 14 16 46 23 33 29 41 29 26 18 10 9 6 12 3 8 17 6 10 23 0
5 3 1 0 9 13 4 4 4 5 7 10 9 9 35 14 1 7 32 33 29 38 31 40 18 11 12 5 14 13 0 26 13
3 4 5 1 3 7 7 4 4 5 5 15 9 4 6 7 0 0 0 1 16 28 26 30 25 18 8 5 6 28 3 14 28
5 4 4 10 2 1 3 3 3 5 6 6 2 9 8 15 2 0 0 0 0 2 12 7 18 2 5 3 7 34 6 0 1
1 1 7 0 0 0 1 1 0 1 5 0 1 2 4 4 1 1 0 0 6 0 2 4 5 17 4 4 13 36 5 0 0
0 1 2 0 0 0 0 1 0 0 7 2 2 3 0 1 0 1 1 0 0 2 2 2 18 12 9 15 5 30 0 0 9
2 2 0 0 0 0 0 0 1 0 5 0 2 2 3 0 2 1 0 1 6 1 0 3 4 13 16 5 3 25 7 0 0
1 3 0 0 0 0 0 2 2 3 1 2 2 0 0 4 3 0 0 0 1 1 2 5 1 0 0 19 16 25 28 13 6
2 1 0 0 0 0 0 0 3 2 3 0 0 0 0 3 4 0 0 0 0 0 0 0 5 0 3 1 0 0 7 18 25
2 0 0 0 0 0 0 1 2 1 2 0 0 0 0 0 0 0 0 0 0 0 0 0 0 0 0 0 0 0 0 1 33
0 0 0 0 0 0 0 0 0 0 0 0 0 0 0 0 0 0 0 1 1 0 0 0 0 0 0 0 0 0 0 4 6
3 0 0 0 0 0 0 0 0 0 0 0 0 0 0 0 0 0 0 1 1 0 0 0 0 0 0 0 0 0 0 0 3
CIN
-30 -166 -211 -217 -6 0 0 0 0 -1 -224 -164 -200 -267 -6 -4 -1 0 -2 -3 0 0 -2 0 0 0 -223 -2 -5 0 0 0 0
-64 -50 0 0 0 0 -58 0 0 0 -248 -194 -226 -235 -4 -12 -17 -6 -3 -2 -1 -1 -1 0 -1 -1 0 0 0 0 0 0 -1
-209 0 0 0 0 -138 -145 -237 -138 0 -250 -148 -230 -223 -158 -2 -2 -3 -1 -3 -1 -1 -2 0 0 0 0 0 0 -1 -1 0 0
0 0 0 0 -12 -151 -188 -173 -229 -8 -16 -19 -269 -218 -3 -1 -2 -1 -1 -2 -1 -1 -2 -1 -1 0 -3 -3 -1 0 0 -1 -1
0 -168 -93 0 -180 -201 -267 -259 -296 -18 -23 -22 -17 -9 -5 -14 -3 -1 -2 0 0 0 -1 0 -1 0 0 0 0 0 -1 -1 -1
0 0 -63 0 -5 -209 -13 -23 -26 -27 -19 -19 -21 -80 -2 -3 -5 -13 -1 0 -1 0 -1 0 0 -1 -1 -4 -2 0 -1 -1 -1
-1 0 0 0 -19 -23 -28 -31 -29 -23 -4 -11 -18 -5 -2 -5 -16 -13 -2 0 0 0 -1 -3 -3 -2 -1 -1 -2 0 0 -1 0
-9 0 0 -11 -31 -32 -40 -11 -6 -10 -7 0 -5 -2 -3 -2 -3 -3 -3 -1 -1 -1 -1 -1 -2 -1 0 -1 -3 -2 0 0 -1
-1 0 0 0 -5 -22 -23 -2 0 -1 -9 -9 -15 -7 -4 -3 -4 -5 -3 -1 0 0 -1 0 -1 -2 -1 -1 -2 -3 -2 -2 0
0 0 0 0 -1 -6 -10 -5 -1 -1 -2 -5 -7 -14 -4 -14 -40 -46 -7 -2 -1 -1 -1 0 -1 -1 0 -1 -1 -1 -3 0 0
-2 -1 -1 -1 -1 -1 -1 -1 0 -2 -1 -2 -2 -2 -5 -1 -11 0 0 -5 -2 -1 0 0 -1 -1 -1 -1 -1 0 -3 0 0
-1 -1 -1 -1 0 -1 -1 -1 -1 -1 -1 -2 -3 -1 0 0 -6 0 0 0 0 -12 -8 -1 -1 -1 -1 -1 -3 0 0 0 -3
-3 0 -1 0 -1 0 -1 0 -1 -1 -1 -2 -3 -2 0 -1 -1 -1 0 -3 -10 -2 -6 -1 -2 -2 -2 -2 -2 0 -2 0 0
-1 -1 -1 0 0 0 0 0 0 0 -3 -4 -4 -2 -1 -1 0 -1 -1 -2 -1 -3 -2 -3 -4 -5 -2 -1 -1 0 0 0 -1
-2 -1 -1 0 0 0 0 -1 -1 0 -2 -2 -2 -1 0 0 -1 -1 -1 0 0 0 0 -2 -8 -6 -4 -1 -1 0 -2 0 0
-2 0 0 0 0 0 0 0 -1 -1 -1 0 -1 0 0 -1 -1 0 0 0 0 0 0 -1 -1 0 0 -2 -1 -1 0 0 0
-1 -1 0 0 0 0 0 -1 -2 -2 -2 0 0 0 0 -1 -1 -1 0 0 0 0 0 -1 -1 0 -1 -8 0 0 0 0 0
-2 0 0 0 0 0 0 -2 -2 -1 -1 0 0 0 0 0 0 0 0 0 0 0 0 0 0 -1 0 0 0 0 0 0 0
-2 0 0 0 0 0 0 0 0 0 0 0 0 0 0 0 0 0 0 -1 0 0 0 0 0 0 0 0 0 0 0 0 0
-1 0 0 0 0 0 0 0 0 0 0 0 0 0 0 0 0 0 0 0 -1 0 0 0 0 0 0 0 0 0 0 0 -1
Wind_Speed
5 6 6 5 4 2 2 1 2 3 6 3 4 2 3 5 11 17 21 23 26 25 25 27 28 30 31 30 31 32 32 32 33
6 6 7 6 5 3 3 2 2 3 4 1 2 6 6 8 10 13 19 22 24 23 25 26 26 28 30 31 30 31 31 32 32
6 5 6 7 7 6 4 2 2 4 3 2 3 4 5 10 11 14 18 22 23 22 24 25 26 27 28 29 30 31 31 31 32
6 5 6 7 8 6 4 3 2 4 2 1 2 4 4 8 10 14 18 21 23 21 23 25 26 26 27 28 29 30 30 31 31
6 6 6 8 10 6 3 2 3 4 2 1 2 3 4 9 10 13 18 20 22 21 23 25 25 26 27 28 29 30 30 31 31
7 7 7 9 9 5 4 2 2 2 2 2 1 8 5 8 10 14 18 20 22 21 24 25 26 27 28 28 29 29 29 30 31
10 8 8 8 7 5 4 3 2 2 2 0 8 8 5 6 10 15 19 21 23 22 23 24 25 25 27 28 29 29 30 30 30
11 12 10 8 8 9 7 5 8 9 10 8 6 5 4 5 7 13 18 20 22 23 23 24 24 25 26 27 28 28 29 30 30
12 14 13 12 12 11 11 9 10 6 10 11 7 5 4 5 6 8 14 19 22 22 22 24 24 24 25 26 27 29 29 29 29
15 15 13 13 15 9 10 13 10 9 10 8 6 8 4 5 6 8 10 13 19 21 22 23 23 23 24 25 27 27 28 29 29
16 16 15 13 14 15 15 16 14 13 12 10 11 5 7 6 7 7 10 15 16 19 18 19 19 20 22 24 25 26 27 29 29
16 18 16 13 15 14 16 16 17 15 15 10 16 10 8 5 6 7 9 11 14 16 17 17 16 17 20 22 24 25 26 27 27
18 19 17 15 15 15 16 17 17 15 14 11 15 10 10 8 9 9 9 9 12 14 15 15 16 16 18 20 22 23 25 25 26
20 19 19 16 16 16 17 18 16 16 12 12 13 12 9 9 8 6 8 9 10 13 13 13 15 15 17 18 20 21 23 25 26
23 21 18 18 18 18 18 17 15 15 12 11 12 11 10 7 7 7 8 8 10 13 14 13 14 12 14 17 18 19 21 23 25
25 23 20 20 20 19 18 17 16 15 14 11 9 10 11 7 9 7 7 7 8 10 12 11 13 11 12 13 15 16 18 20 22
28 25 24 22 21 20 19 18 17 16 14 14 11 13 12 12 10 8 5 5 7 8 10 9 10 11 10 11 12 14 16 18 20
30 26 27 25 23 22 21 19 18 18 18 15 16 16 18 9 10 7 5 4 5 6 8 8 9 9 10 10 11 12 14 16 18
31 29 29 27 26 24 22 21 21 19 20 18 19 18 15 14 12 8 4 3 3 5 6 7 8 8 8 9 9 10 12 14 15
32 31 30 29 28 25 24 23 22 21 21 20 19 19 15 16 11 8 4 6 4 4 5 6 7 7 7 7 8 8 9 11 12
Wind_Direction
175 191 205 198 197 208 222 203 63 63 61 42 39 350 292 357 22 39 49 49 56 52 54 58 54 49 48 52 47 46 47 46 46
190 198 209 208 205 207 210 159 93 79 60 284 303 241 254 16 21 26 40 49 55 47 55 56 54 54 46 49 49 47 46 50 49
170 200 215 218 206 203 212 144 90 77 59 265 280 258 353 32 25 26 36 53 57 47 54 50 57 60 50 49 45 46 49 54 51
175 209 222 213 201 197 213 123 92 71 64 323 342 263 343 17 17 25 31 53 56 45 50 53 54 54 51 47 48 47 48 49 50
196 211 216 196 201 199 149 119 83 71 72 335 50 284 325 22 14 18 37 46 50 44 50 51 56 53 55 55 50 55 53 51 53
196 216 206 195 207 182 154 126 92 76 78 61 261 249 324 21 23 33 37 50 52 48 52 53 49 51 54 54 56 50 55 53 55
217 210 205 190 191 187 172 134 144 236 229 66 235 255 348 357 28 44 50 54 59 53 56 51 50 46 52 54 53 54 52 54 59
210 216 213 205 199 217 217 220 239 242 237 247 258 282 345 359 3 41 53 57 62 62 57 60 48 51 54 59 57 50 55 58 57
213 220 223 221 223 221 227 227 238 233 238 241 251 269 306 335 346 355 39 59 64 66 61 61 53 50 55 56 62 56 65 64 58
215 223 224 225 227 213 221 230 233 234 236 235 249 247 16 12 355 3 8 30 56 63 60 56 52 46 51 59 62 68 67 63 63
216 223 227 225 228 228 229 230 228 231 235 235 239 251 266 8 25 5 17 32 33 46 39 39 34 37 42 56 68 75 67 59 55
217 224 228 227 227 222 226 226 228 231 234 234 234 247 266 320 353 31 24 20 26 27 29 18 21 24 46 57 64 65 66 62 65
218 223 227 225 223 221 221 223 225 229 230 230 237 251 263 285 297 293 327 356 24 17 13 5 30 29 49 54 59 59 61 63 68
220 222 225 222 220 220 219 223 224 226 227 231 239 253 269 284 298 331 357 352 33 42 31 13 28 30 46 53 62 55 50 60 64
221 221 220 220 220 220 221 221 223 226 224 226 240 255 267 294 298 320 341 4 39 54 61 50 19 17 26 45 53 42 62 60 63
221 222 218 222 221 220 219 221 220 224 225 223 239 258 264 286 285 315 347 27 31 46 56 33 43 12 10 14 33 37 40 68 66
222 221 220 221 221 219 219 222 220 225 225 227 233 250 260 269 281 302 343 26 32 41 51 14 31 49 19 354 359 13 33 44 65
223 222 222 222 222 221 220 221 222 224 230 230 251 250 258 255 275 290 320 15 31 38 43 23 2 21 6 13 3 5 35 44 58
222 223 223 223 224 222 222 223 228 228 231 234 254 261 261 260 265 277 302 329 5 12 26 22 357 16 26 349 9 11 5 40 54
223 223 223 224 225 222 223 225 230 234 235 239 246 253 259 266 268 260 261 294 315 340 359 14 354 19 17 1 357 12 10 10 38